Location: 22
(39.7117°N, 89.5929°W)
Time: 10:22:59
(UTC-05:00)

Courier 1B - Pass Details

Date: 30 January 2023
Orbit: 962 x 1209 km, 28.3° (Epoch: 26 March)

Event Time Altitude Azimuth Distance (km) Brightness Sun altitude
Rises 18:12:15 0° 258° (WSW) 3,642 12.8 -11.2°
Reaches altitude 10° 18:15:39 10° 241° (WSW) 2,711 11.2 -11.8°
Maximum altitude 18:20:04 19° 198° (SSW) 2,151 9.7 -12.7°
Drops below altitude 10° 18:24:37 10° 155° (SSE) 2,791 9.8 -13.5°
Sets 18:28:12 0° 139° (SE) 3,786 10.3 -14.2°
